Date String (YYYY-MM-DD hh:mm:ss) UTC,Instrument flags,Ambient pressure (hPa),Sample flow (lpm),Bypass flow (lpm),Sample temperature (°C),Ambient temperature (°C),ASC tube jacket temperature (°C),LED temperature (°C),Box temperature (°C),Sample RH (%),Span deviation,Mass concentration (μg/m³),Mass concentration (μg/m³),Mass concentration (μg/m³)
DateTimeUTC,F1_M11,P_M11,Q1_M11,Q2_M11,T1_M11,T2_M11,T3_M11,T4_M11,T5_M11,U1_M11,ZSPAN_M11,X2_M11,X0_M11,X1_M11
2023-05-09 13:00:00,,0829.5,5.00,0.00,26.2,24.7,00.0,34.5,28.0,20.5,0000.0,0003.69,0009.86,0002.42
2023-05-09 13:01:00,,0829.4,4.99,0.00,26.2,24.7,00.0,34.6,28.0,20.5,0000.0,0003.65,0009.56,0002.40
2023-05-09 13:02:00,,0829.5,5.00,0.00,26.2,24.7,00.0,34.6,28.0,20.7,0000.0,0003.61,0009.54,0002.39
2023-05-09 13:03:00,,0829.4,5.00,0.00,26.3,24.8,00.0,34.6,28.0,20.5,0000.0,0003.53,0009.42,0002.39
2023-05-09 13:04:00,,0829.4,5.00,0.00,26.3,24.8,00.0,34.6,28.0,20.5,0000.0,0003.52,0009.61,0002.41
2023-05-09 13:05:00,,0829.3,5.00,0.00,26.3,24.8,00.0,34.6,28.1,20.6,0000.0,0003.47,0009.45,0002.40
2023-05-09 13:06:00,,0829.4,5.00,0.00,26.3,24.8,00.0,34.6,28.1,20.6,0000.0,0003.45,0009.03,0002.40
2023-05-09 13:07:00,,0829.3,5.00,0.00,26.3,24.8,00.0,34.6,28.1,20.7,0000.0,0003.45,0008.66,0002.40
2023-05-09 13:08:00,,0829.3,5.00,0.00,26.3,24.8,00.0,34.6,28.1,20.8,0000.0,0003.41,0008.90,0002.40
2023-05-09 13:09:00,,0829.4,5.00,0.00,26.3,24.8,00.0,34.6,28.1,20.7,0000.0,0003.41,0008.89,0002.39
2023-05-09 13:10:00,,0829.3,5.00,0.00,26.3,24.8,00.0,34.6,28.1,21.0,0000.0,0003.37,0008.74,0002.39
2023-05-09 13:11:00,,0829.4,5.00,0.00,26.3,24.9,00.0,34.6,28.1,21.3,0000.0,0003.44,0008.87,0002.42
2023-05-09 13:12:00,,0829.4,5.00,0.00,26.4,24.9,00.0,34.7,28.1,22.0,0000.0,0003.46,0008.45,0002.48
2023-05-09 13:13:00,,0829.3,5.00,0.00,26.4,24.9,00.0,34.7,28.1,22.1,0000.0,0003.51,0008.66,0002.54
2023-05-09 13:14:00,,0829.3,5.00,0.00,26.4,24.9,00.0,34.7,28.1,22.1,0000.0,0003.56,0008.67,0002.60
2023-05-09 13:15:00,,0829.3,5.00,0.00,26.4,24.9,00.0,34.7,28.1,22.0,0000.0,0003.61,0008.57,0002.68
2023-05-09 13:16:00,,0829.4,5.00,0.00,26.4,24.9,00.0,34.7,28.1,21.9,0000.0,0003.66,0008.63,0002.75
2023-05-09 13:17:00,,0829.4,5.00,0.00,26.4,24.9,00.0,34.7,28.1,21.9,0000.0,0003.76,0008.84,0002.81
2023-05-09 13:18:00,,0829.3,5.00,0.00,26.4,24.9,00.0,34.7,28.2,21.8,0000.0,0003.87,0008.86,0002.87
2023-05-09 13:19:00,,0829.4,5.00,0.00,26.4,24.9,00.0,34.7,28.2,21.7,0000.0,0003.89,0008.48,0002.91
2023-05-09 13:20:00,,0829.4,5.00,0.00,26.4,24.9,00.0,34.7,28.2,22.0,0000.0,0003.96,0008.54,0002.99
2023-05-09 13:21:00,,0829.4,5.00,0.00,26.4,24.9,00.0,34.7,28.2,22.5,0000.0,0004.06,0008.82,0003.08
2023-05-09 13:22:00,,0829.4,5.00,0.00,26.4,24.9,00.0,34.7,28.2,22.4,0000.0,0004.09,0009.78,0003.12
2023-05-09 13:23:00,,0829.4,5.00,0.00,26.4,24.9,00.0,34.7,28.2,22.7,0000.0,0004.19,0009.86,0003.14
2023-05-09 13:24:00,,0829.4,5.00,0.00,26.4,24.9,00.0,34.7,28.2,23.1,0000.0,0004.22,0009.64,0003.16
2023-05-09 13:25:00,,0829.5,5.00,0.00,26.5,24.9,00.0,34.7,28.2,23.2,0000.0,0004.27,0009.72,0003.19
2023-05-09 13:26:00,,0829.5,5.00,0.00,26.5,24.9,00.0,34.8,28.2,23.1,0000.0,0004.29,0009.79,0003.22
2023-05-09 13:27:00,,0829.6,4.99,0.00,26.5,24.9,00.0,34.8,28.2,23.2,0000.0,0004.38,0010.27,0003.25
2023-05-09 13:28:00,,0829.6,4.99,0.00,26.5,24.9,00.0,34.8,28.2,23.1,0000.0,0004.39,0010.15,0003.29
2023-05-09 13:29:00,,0829.7,4.99,0.00,26.5,24.9,00.0,34.8,28.2,23.2,0000.0,0004.35,0010.19,0003.32
2023-05-09 13:30:00,,0829.6,5.00,0.00,26.5,24.9,00.0,34.8,28.2,22.9,0000.0,0004.41,0010.32,0003.36
2023-05-09 13:31:00,,0829.6,5.01,0.00,26.5,24.9,00.0,34.8,28.2,22.9,0000.0,0004.41,0010.34,0003.37
2023-05-09 13:32:00,,0829.6,5.00,0.00,26.5,24.9,00.0,34.8,28.2,22.8,0000.0,0004.37,0010.20,0003.37
2023-05-09 13:33:00,,0829.6,5.01,0.00,26.5,24.9,00.0,34.8,28.2,22.7,0000.0,0004.34,0009.28,0003.37
2023-05-09 13:34:00,,0829.6,5.00,0.00,26.5,25.0,00.0,34.8,28.2,22.8,0000.0,0004.29,0009.08,0003.38
2023-05-09 13:35:00,,0829.6,5.00,0.00,26.5,25.0,00.0,34.8,28.2,23.0,0000.0,0004.28,0009.05,0003.38
2023-05-09 13:36:00,,0829.6,4.99,0.00,26.5,25.0,00.0,34.8,28.3,23.0,0000.0,0004.25,0009.14,0003.36
2023-05-09 13:37:00,,0829.6,5.00,0.00,26.5,25.0,00.0,34.8,28.3,22.8,0000.0,0004.24,0009.48,0003.35
2023-05-09 13:38:00,,0829.5,5.00,0.00,26.5,25.0,00.0,34.8,28.3,22.8,0000.0,0004.19,0008.99,0003.33
2023-05-09 13:39:00,,0829.6,5.00,0.00,26.5,25.0,00.0,34.8,28.3,23.1,0000.0,0004.17,0008.83,0003.33
2023-05-09 13:40:00,,0829.7,5.00,0.00,26.5,25.0,00.0,34.8,28.3,23.2,0000.0,0004.18,0008.79,0003.33
2023-05-09 13:41:00,,0829.7,5.00,0.00,26.5,25.0,00.0,34.8,28.3,23.7,0000.0,0004.15,0008.57,0003.33
2023-05-09 13:42:00,,0829.7,5.00,0.00,26.6,25.0,00.0,34.9,28.3,23.7,0000.0,0004.12,0008.43,0003.35
2023-05-09 13:43:00,,0829.7,5.00,0.00,26.6,25.1,00.0,34.9,28.3,23.9,0000.0,0004.16,0008.49,0003.38
2023-05-09 13:44:00,,0829.7,4.99,0.00,26.6,25.1,00.0,34.9,28.3,24.4,0000.0,0004.21,0009.22,0003.43
2023-05-09 13:45:00,,0829.7,4.99,0.00,26.6,25.1,00.0,34.9,28.3,24.6,0000.0,0004.33,0010.00,0003.49
2023-05-09 13:46:00,,0829.7,5.00,0.00,26.6,25.1,00.0,34.9,28.3,24.4,0000.0,0004.40,0010.23,0003.56
2023-05-09 13:47:00,,0829.7,5.00,0.00,26.6,25.1,00.0,34.9,28.3,24.5,0000.0,0004.44,0010.63,0003.62
2023-05-09 13:48:00,,0829.7,5.00,0.00,26.6,25.1,00.0,34.9,28.3,24.5,0000.0,0004.53,0010.97,0003.71
2023-05-09 13:49:00,,0829.7,5.00,0.00,26.6,25.1,00.0,34.9,28.3,24.5,0000.0,0004.61,0011.14,0003.78
2023-05-09 13:50:00,,0829.7,5.00,0.00,26.6,25.1,00.0,34.9,28.3,24.5,0000.9,0004.64,0011.30,0003.82
2023-05-09 13:51:00,,0829.7,5.01,0.00,26.6,25.1,00.0,34.9,28.4,24.5,0000.7,0004.72,0011.38,0003.87
2023-05-09 13:52:00,,0829.7,5.00,0.00,26.6,25.1,00.0,34.9,28.4,24.5,0001.3,0004.87,0011.57,0003.95
2023-05-09 13:53:00,,0829.8,5.00,0.00,26.6,25.1,00.0,34.9,28.4,24.6,0001.6,0004.97,0012.03,0004.00
2023-05-09 13:54:00,,0829.7,5.00,0.00,26.7,25.2,00.0,34.9,28.4,24.7,0001.2,0005.02,0012.52,0004.04
2023-05-09 13:55:00,,0829.8,5.00,0.00,26.7,25.2,00.0,34.9,28.4,24.2,0000.4,0005.08,0012.60,0004.05
2023-05-09 13:56:00,,0829.8,4.99,0.00,26.7,25.2,00.0,35.0,28.4,24.2,0000.0,0005.08,0012.03,0004.04
2023-05-09 13:57:00,,0829.8,5.00,0.00,26.7,25.2,00.0,35.0,28.4,24.1,0000.0,0005.08,0012.01,0004.02
2023-05-09 13:58:00,,0829.8,5.01,0.00,26.7,25.2,00.0,35.0,28.4,24.5,0000.0,0005.09,0011.93,0004.02
2023-05-09 13:59:00,,0829.8,5.00,0.00,26.7,25.2,00.0,35.0,28.4,24.4,0000.0,0005.14,0011.46,0004.00
